Time,TemperatureF,DewpointF,PressureIn,WindDirection,WindDirectionDegrees,WindSpeedMPH,WindSpeedGustMPH,Humidity,HourlyPrecipIn,Conditions,Clouds,dailyrainin,SoftwareType,DateUTC
2013-09-10 00:07:00,49.3,48.8,30.07,NNE,22,0.0,-999.0,98,-99.99,,,0.00,Acu-Link.com,2013-09-10 04:07:00,
2013-09-10 00:22:00,49.1,48.6,30.07,NW,315,0.0,-999.0,98,-99.99,,,0.00,Acu-Link.com,2013-09-10 04:22:00,
2013-09-10 00:37:00,49.1,48.6,30.07,NNW,337,0.0,-999.0,98,-99.99,,,0.00,Acu-Link.com,2013-09-10 04:37:00,
2013-09-10 00:52:00,49.1,48.6,30.07,SE,135,0.0,-999.0,98,-99.99,,,0.00,Acu-Link.com,2013-09-10 04:52:00,
2013-09-10 01:08:00,48.6,48.1,30.08,NW,315,0.0,-999.0,98,-99.99,,,0.00,Acu-Link.com,2013-09-10 05:08:00,
2013-09-10 01:23:00,48.2,47.7,30.07,NE,45,0.0,-999.0,98,-99.99,,,0.00,Acu-Link.com,2013-09-10 05:23:00,
2013-09-10 01:38:00,47.8,47.3,30.07,WNW,292,0.0,-999.0,98,-99.99,,,0.00,Acu-Link.com,2013-09-10 05:38:00,
2013-09-10 01:54:00,47.5,47.0,30.07,WNW,292,0.0,-999.0,98,-99.99,,,0.00,Acu-Link.com,2013-09-10 05:54:00,
2013-09-10 02:09:00,47.1,46.6,30.07,NW,315,0.0,-999.0,98,-99.99,,,0.00,Acu-Link.com,2013-09-10 06:09:00,
2013-09-10 02:24:00,47.1,46.6,30.08,NW,315,0.0,-999.0,98,-99.99,,,0.00,Acu-Link.com,2013-09-10 06:24:00,
2013-09-10 02:39:00,47.1,46.6,30.07,NNE,22,0.0,-999.0,98,-99.99,,,0.00,Acu-Link.com,2013-09-10 06:39:00,
2013-09-10 02:54:00,47.1,46.6,30.06,NNW,337,0.0,-999.0,98,-99.99,,,0.00,Acu-Link.com,2013-09-10 06:54:00,
2013-09-10 03:10:00,46.8,46.3,30.05,NNW,337,0.0,-999.0,98,-99.99,,,0.00,Acu-Link.com,2013-09-10 07:10:00,
2013-09-10 03:25:00,46.6,46.1,30.05,NNW,337,0.0,-999.0,98,-99.99,,,0.00,Acu-Link.com,2013-09-10 07:25:00,
2013-09-10 03:40:00,46.4,45.9,30.06,WNW,292,0.0,-999.0,98,-99.99,,,0.00,Acu-Link.com,2013-09-10 07:40:00,
2013-09-10 03:55:00,46.2,45.7,30.06,NNE,22,0.0,-999.0,98,-99.99,,,0.00,Acu-Link.com,2013-09-10 07:55:00,
2013-09-10 04:11:00,46.0,45.5,30.06,NNE,22,0.0,-999.0,98,-99.99,,,0.00,Acu-Link.com,2013-09-10 08:11:00,
2013-09-10 04:26:00,45.9,45.4,30.06,NNE,22,0.0,-999.0,98,-99.99,,,0.00,Acu-Link.com,2013-09-10 08:26:00,
2013-09-10 04:41:00,45.9,45.4,30.06,NNE,22,0.0,-999.0,98,-99.99,,,0.00,Acu-Link.com,2013-09-10 08:41:00,
2013-09-10 04:57:00,45.5,45.0,30.06,NNE,22,0.0,-999.0,98,-99.99,,,0.00,Acu-Link.com,2013-09-10 08:57:00,
2013-09-10 05:12:00,45.5,45.0,30.07,NNE,22,0.0,-999.0,98,-99.99,,,0.00,Acu-Link.com,2013-09-10 09:12:00,
2013-09-10 05:27:00,45.5,45.0,30.06,WNW,292,0.0,-999.0,98,-99.99,,,0.00,Acu-Link.com,2013-09-10 09:27:00,
2013-09-10 05:42:00,45.5,45.0,30.05,ENE,67,0.0,-999.0,98,-99.99,,,0.00,Acu-Link.com,2013-09-10 09:42:00,
2013-09-10 05:57:00,45.5,45.0,30.05,NW,315,0.0,-999.0,98,-99.99,,,0.00,Acu-Link.com,2013-09-10 09:57:00,
2013-09-10 06:13:00,45.7,45.2,30.05,NW,315,0.0,-999.0,98,-99.99,,,0.00,Acu-Link.com,2013-09-10 10:13:00,
2013-09-10 06:28:00,46.0,45.5,30.05,WNW,292,0.0,-999.0,98,-99.99,,,0.00,Acu-Link.com,2013-09-10 10:28:00,
2013-09-10 06:43:00,46.6,46.1,30.05,NNE,22,0.0,-999.0,98,-99.99,,,0.00,Acu-Link.com,2013-09-10 10:43:00,
2013-09-10 06:58:00,46.9,46.4,30.06,North,0,0.0,-999.0,98,-99.99,,,0.00,Acu-Link.com,2013-09-10 10:58:00,
2013-09-10 07:14:00,47.7,47.2,30.06,East,90,0.0,-999.0,98,-99.99,,,0.00,Acu-Link.com,2013-09-10 11:14:00,
2013-09-10 07:29:00,48.0,47.5,30.06,East,90,0.0,-999.0,98,-99.99,,,0.00,Acu-Link.com,2013-09-10 11:29:00,
2013-09-10 07:44:00,48.9,48.4,30.06,East,90,0.0,-999.0,98,-99.99,,,0.00,Acu-Link.com,2013-09-10 11:44:00,
2013-09-10 07:59:00,50.0,49.5,30.05,East,90,0.0,-999.0,98,-99.99,,,0.00,Acu-Link.com,2013-09-10 11:59:00,
2013-09-10 08:14:00,51.1,50.6,30.06,SSE,157,0.0,-999.0,98,-99.99,,,0.00,Acu-Link.com,2013-09-10 12:14:00,
2013-09-10 08:30:00,51.6,51.1,30.05,WSW,247,0.0,-999.0,98,-99.99,,,0.00,Acu-Link.com,2013-09-10 12:30:00,
2013-09-10 08:45:00,52.2,51.7,30.06,SW,225,0.0,-999.0,98,-99.99,,,0.00,Acu-Link.com,2013-09-10 12:45:00,
2013-09-10 09:00:00,52.5,52.0,30.05,SW,225,0.0,-999.0,98,-99.99,,,0.00,Acu-Link.com,2013-09-10 13:00:00,
2013-09-10 09:15:00,52.9,52.4,30.05,West,270,0.0,-999.0,98,-99.99,,,0.00,Acu-Link.com,2013-09-10 13:15:00,
2013-09-10 09:30:00,53.8,53.2,30.04,West,270,0.0,-999.0,98,-99.99,,,0.00,Acu-Link.com,2013-09-10 13:30:00,
2013-09-10 09:46:00,54.7,54.1,30.04,SSE,157,0.0,-999.0,98,-99.99,,,0.00,Acu-Link.com,2013-09-10 13:46:00,
2013-09-10 10:01:00,55.2,54.6,30.04,South,180,0.0,-999.0,98,-99.99,,,0.00,Acu-Link.com,2013-09-10 14:01:00,
2013-09-10 10:16:00,55.8,55.2,30.04,NNE,22,0.0,-999.0,98,-99.99,,,0.00,Acu-Link.com,2013-09-10 14:16:00,
2013-09-10 10:32:00,56.3,55.7,30.04,South,180,0.0,-999.0,98,-99.99,,,0.00,Acu-Link.com,2013-09-10 14:32:00,
2013-09-10 10:47:00,56.7,56.1,30.04,NE,45,0.0,-999.0,98,-99.99,,,0.00,Acu-Link.com,2013-09-10 14:47:00,
2013-09-10 11:02:00,56.8,56.2,30.05,ESE,112,0.0,-999.0,98,-99.99,,,0.00,Acu-Link.com,2013-09-10 15:02:00,
2013-09-10 11:17:00,56.8,56.2,30.05,NNE,22,0.0,-999.0,98,-99.99,,,0.00,Acu-Link.com,2013-09-10 15:17:00,
2013-09-10 11:33:00,56.8,56.2,30.05,East,90,0.0,-999.0,98,-99.99,,,0.00,Acu-Link.com,2013-09-10 15:33:00,
2013-09-10 11:48:00,56.8,56.2,30.03,NE,45,0.0,-999.0,98,-99.99,,,0.00,Acu-Link.com,2013-09-10 15:48:00,
2013-09-10 12:03:00,56.8,56.2,30.03,NNW,337,0.0,-999.0,98,-99.99,,,0.00,Acu-Link.com,2013-09-10 16:03:00,
2013-09-10 12:18:00,56.8,56.2,30.03,WNW,292,0.0,-999.0,98,-99.99,,,0.00,Acu-Link.com,2013-09-10 16:18:00,
2013-09-10 12:33:00,56.8,56.2,30.03,WSW,247,0.0,-999.0,98,-99.99,,,0.00,Acu-Link.com,2013-09-10 16:33:00,
2013-09-10 12:49:00,57.2,56.6,30.04,ENE,67,0.0,-999.0,98,-99.99,,,0.00,Acu-Link.com,2013-09-10 16:49:00,
2013-09-10 13:04:00,57.4,56.8,30.02,West,270,0.0,-999.0,98,-99.99,,,0.00,Acu-Link.com,2013-09-10 17:04:00,
2013-09-10 13:19:00,57.9,57.3,30.03,SSW,202,0.0,-999.0,98,-99.99,,,0.00,Acu-Link.com,2013-09-10 17:19:00,
2013-09-10 13:34:00,58.8,58.2,30.02,North,0,0.0,-999.0,98,-99.99,,,0.00,Acu-Link.com,2013-09-10 17:34:00,
2013-09-10 13:50:00,59.2,58.6,30.02,NW,315,0.0,-999.0,98,-99.99,,,0.00,Acu-Link.com,2013-09-10 17:50:00,
2013-09-10 14:05:00,59.7,59.1,30.01,SSW,202,0.0,-999.0,98,-99.99,,,0.00,Acu-Link.com,2013-09-10 18:05:00,
2013-09-10 14:20:00,60.6,60.0,30.01,SW,225,1.7,-999.0,98,-99.99,,,0.00,Acu-Link.com,2013-09-10 18:20:00,
2013-09-10 14:35:00,61.3,60.7,30.02,SW,225,0.0,-999.0,98,-99.99,,,0.00,Acu-Link.com,2013-09-10 18:35:00,
2013-09-10 14:51:00,61.3,60.7,30.00,SW,225,0.0,-999.0,98,-99.99,,,0.00,Acu-Link.com,2013-09-10 18:51:00,
2013-09-10 15:06:00,61.7,61.1,30.00,West,270,0.0,-999.0,98,-99.99,,,0.00,Acu-Link.com,2013-09-10 19:06:00,
2013-09-10 15:21:00,62.2,61.6,30.00,East,90,0.0,-999.0,98,-99.99,,,0.00,Acu-Link.com,2013-09-10 19:21:00,
2013-09-10 15:37:00,63.3,62.7,29.99,ESE,112,0.0,-999.0,98,-99.99,,,0.00,Acu-Link.com,2013-09-10 19:37:00,
2013-09-10 15:52:00,64.0,63.4,29.99,East,90,0.0,-999.0,98,-99.99,,,0.00,Acu-Link.com,2013-09-10 19:52:00,
2013-09-10 16:07:00,64.2,63.6,29.99,South,180,2.2,-999.0,98,-99.99,,,0.00,Acu-Link.com,2013-09-10 20:07:00,
2013-09-10 16:22:00,64.4,63.8,30.00,NW,315,0.0,-999.0,98,-99.99,,,0.00,Acu-Link.com,2013-09-10 20:22:00,
2013-09-10 16:37:00,64.6,64.0,30.00,WNW,292,1.1,-999.0,98,-99.99,,,0.00,Acu-Link.com,2013-09-10 20:37:00,
2013-09-10 16:53:00,64.6,64.0,30.00,WNW,292,0.0,-999.0,98,-99.99,,,0.00,Acu-Link.com,2013-09-10 20:53:00,
2013-09-10 17:08:00,64.4,63.8,30.00,NW,315,0.0,-999.0,98,-99.99,,,0.00,Acu-Link.com,2013-09-10 21:08:00,
2013-09-10 17:23:00,64.8,64.2,30.00,NW,315,0.0,-999.0,98,-99.99,,,0.00,Acu-Link.com,2013-09-10 21:23:00,
2013-09-10 17:39:00,64.9,64.3,30.00,NNW,337,0.0,-999.0,98,-99.99,,,0.00,Acu-Link.com,2013-09-10 21:39:00,
2013-09-10 17:54:00,64.2,63.6,30.00,NNW,337,0.0,-999.0,98,-99.99,,,0.00,Acu-Link.com,2013-09-10 21:54:00,
2013-09-10 18:09:00,63.9,63.3,30.01,NNW,337,0.0,-999.0,98,-99.99,,,0.00,Acu-Link.com,2013-09-10 22:09:00,
2013-09-10 18:24:00,63.9,63.3,30.01,NNW,337,0.0,-999.0,98,-99.99,,,0.00,Acu-Link.com,2013-09-10 22:24:00,
2013-09-10 18:39:00,63.7,63.1,30.01,NNW,337,0.0,-999.0,98,-99.99,,,0.00,Acu-Link.com,2013-09-10 22:39:00,
2013-09-10 18:55:00,63.5,62.9,30.02,NNW,337,0.0,-999.0,98,-99.99,,,0.00,Acu-Link.com,2013-09-10 22:55:00,
2013-09-10 19:10:00,63.5,62.9,30.02,NNW,337,0.0,-999.0,98,-99.99,,,0.00,Acu-Link.com,2013-09-10 23:10:00,
2013-09-10 19:25:00,63.3,62.7,30.03,NNW,337,0.0,-999.0,98,-99.99,,,0.00,Acu-Link.com,2013-09-10 23:25:00,
2013-09-10 19:40:00,63.0,62.4,30.03,NNW,337,0.0,-999.0,98,-99.99,,,0.00,Acu-Link.com,2013-09-10 23:40:00,
2013-09-10 19:55:00,62.8,62.2,30.03,NNW,337,0.0,-999.0,98,-99.99,,,0.00,Acu-Link.com,2013-09-10 23:55:00,
2013-09-10 20:11:00,62.8,62.2,30.03,NNW,337,0.0,-999.0,98,-99.99,,,0.00,Acu-Link.com,2013-09-11 00:11:00,
2013-09-10 20:26:00,62.8,62.2,30.04,NNW,337,0.0,-999.0,98,-99.99,,,0.00,Acu-Link.com,2013-09-11 00:26:00,
2013-09-10 20:41:00,62.8,62.2,30.04,NNW,337,0.0,-999.0,98,-99.99,,,0.00,Acu-Link.com,2013-09-11 00:41:00,
2013-09-10 20:57:00,62.8,62.2,30.05,NNW,337,0.0,-999.0,98,-99.99,,,0.00,Acu-Link.com,2013-09-11 00:57:00,
2013-09-10 21:12:00,62.8,62.2,30.04,NNW,337,0.0,-999.0,98,-99.99,,,0.00,Acu-Link.com,2013-09-11 01:12:00,
2013-09-10 21:27:00,62.8,62.2,30.04,NNW,337,0.0,-999.0,98,-99.99,,,0.00,Acu-Link.com,2013-09-11 01:27:00,
2013-09-10 21:42:00,62.6,62.0,30.05,NNW,337,0.0,-999.0,98,-99.99,,,0.00,Acu-Link.com,2013-09-11 01:42:00,
2013-09-10 21:57:00,62.4,61.8,30.05,NNW,337,0.0,-999.0,98,-99.99,,,0.00,Acu-Link.com,2013-09-11 01:57:00,
2013-09-10 22:13:00,62.4,61.8,30.04,NNW,337,0.0,-999.0,98,-99.99,,,0.00,Acu-Link.com,2013-09-11 02:13:00,
2013-09-10 22:28:00,62.2,61.6,30.04,NNW,337,0.0,-999.0,98,-99.99,,,0.00,Acu-Link.com,2013-09-11 02:28:00,
2013-09-10 22:43:00,62.2,61.6,30.04,NNW,337,0.0,-999.0,98,-99.99,,,0.00,Acu-Link.com,2013-09-11 02:43:00,
2013-09-10 22:58:00,62.2,61.6,30.04,NNW,337,0.0,-999.0,98,-99.99,,,0.00,Acu-Link.com,2013-09-11 02:58:00,
2013-09-10 23:13:00,62.2,61.6,30.03,NNW,337,0.0,-999.0,98,-99.99,,,0.00,Acu-Link.com,2013-09-11 03:13:00,
2013-09-10 23:29:00,62.2,61.6,30.03,NNW,337,0.0,-999.0,98,-99.99,,,0.00,Acu-Link.com,2013-09-11 03:29:00,
2013-09-10 23:44:00,62.2,61.6,30.02,NNW,337,0.0,-999.0,98,-99.99,,,0.00,Acu-Link.com,2013-09-11 03:44:00,
2013-09-10 23:59:00,62.1,61.5,30.02,NNW,337,0.0,-999.0,98,-99.99,,,0.00,Acu-Link.com,2013-09-11 03:59:00,